Weather History for Montpelier, VT

Change the Weather History Date:

Sunday, December 9, 2012

  Actual Average Record
Temperature  
Mean Temperature 36 °F 26 °F  
Max Temperature 44 °F 34 °F 60 °F (1966)
Min Temperature 27 °F 17 °F -16 °F (1989)
Degree Days  
Heating Degree Days 29 39  
Month to date heating degree days 277 339  
Since 1 July heating degree days 2064 2185  
Moisture  
Dew Point 28 °F    
Average Humidity 75    
Maximum Humidity 85    
Minimum Humidity 64    
Precipitation  
Precipitation 0.01 in 0.10 in 0.64 in (1973)
Month to date precipitation 0.82 0.90  
Year to date precipitation 31.30 35.43  
Sea Level Pressure  
Sea Level Pressure 30.22 in    
Wind  
Wind Speed 5 mph (NW)    
Max Wind Speed 15 mph    
Max Gust Speed 24 mph    
Visibility 10 miles    
Events Snow    
T = Trace of Precipitation, MM = Missing Value Source: NWS Daily Summary

Daily Weather History Graph

Daily Weather History Graph

Search for Another Location

Airport:

Trip Planner

Search our weather history database for the weather conditions in past years. The results will help you decide how hot, cold, wet, or windy it might be!

Date:

Astronomy

Dec. 09, 2012 Rise Set
Actual Time 7:14 AM EST 4:11 PM EST
Civil Twilight 6:41 AM EST 4:44 PM EST
Nautical Twilight 6:04 AM EST 5:20 PM EST
Astronomical Twilight 5:29 AM EST 5:56 PM EST
Moon 2:36 AM EST (12/9) 1:22 PM EST (12/9)
Length of Visible Light 10h 03m
Length of Day
8h 57m
Waning Crescent, 19% of the Moon is Illuminated
Dec 9
Waning Crescent
Dec 13
New
Dec 20
First Quarter
Dec 28
Full
Jan 4
Last Quarter

Hourly Weather History & Observations

Time (EST) Temp. Windchill Dew Point Humidity Pressure Visibility Wind Dir Wind Speed Gust Speed Precip Events Conditions
12:03 AM 42.8 °F 41.1 °F 37.4 °F 81% 29.95 in 10.0 mi Variable 3.5 mph - N/A   Overcast
12:51 AM 42.1 °F 38.4 °F 36.0 °F 79% 30.02 in 10.0 mi NW 5.8 mph - N/A   Overcast
1:37 AM 41.0 °F 38.0 °F 35.6 °F 81% 30.02 in 10.0 mi NNW 4.6 mph - N/A   Overcast
1:51 AM 39.0 °F 35.7 °F 36.0 °F 89% 30.06 in 10.0 mi NNE 4.6 mph - N/A   Overcast
2:51 AM 37.9 °F 30.5 °F 33.1 °F 83% 30.10 in 10.0 mi NW 11.5 mph 19.6 mph N/A   Overcast
3:51 AM 37.0 °F 30.4 °F 30.9 °F 79% 30.13 in 10.0 mi NNW 9.2 mph 17.3 mph N/A   Overcast
4:28 AM 35.6 °F 28.6 °F 30.2 °F 81% 30.12 in 10.0 mi NW 9.2 mph - N/A   Overcast
4:51 AM 36.0 °F 28.5 °F 30.0 °F 79% 30.18 in 10.0 mi WNW 10.4 mph 19.6 mph N/A   Overcast
5:13 AM 35.6 °F 28.6 °F 28.4 °F 75% 30.15 in 10.0 mi NNW 9.2 mph 18.4 mph N/A   Overcast
5:51 AM 36.0 °F 28.5 °F 28.0 °F 73% 30.21 in 10.0 mi WNW 10.4 mph - N/A   Overcast
6:03 AM 35.6 °F 27.5 °F 28.4 °F 75% 30.18 in 10.0 mi NW 11.5 mph 17.3 mph N/A   Overcast
6:30 AM 35.6 °F 28.0 °F 28.4 °F 75% 30.20 in 10.0 mi WNW 10.4 mph - N/A   Overcast
6:51 AM 34.0 °F 25.5 °F 28.0 °F 79% 30.26 in 10.0 mi NW 11.5 mph - N/A   Mostly Cloudy
7:51 AM 34.0 °F 27.2 °F 28.0 °F 79% 30.28 in 10.0 mi NW 8.1 mph - N/A   Mostly Cloudy
8:18 AM 33.8 °F 25.8 °F 28.4 °F 81% 30.25 in 10.0 mi NW 10.4 mph - N/A   Mostly Cloudy
8:51 AM 35.1 °F 29.3 °F 28.0 °F 76% 30.31 in 10.0 mi NW 6.9 mph - N/A   Overcast
9:26 AM 33.8 °F 26.4 °F 26.6 °F 75% 30.28 in 10.0 mi NW 9.2 mph 18.4 mph N/A   Scattered Clouds
9:40 AM 33.8 °F 27.7 °F 26.6 °F 75% 30.29 in 10.0 mi WNW 6.9 mph - N/A   Mostly Cloudy
9:51 AM 35.1 °F 27.4 °F 27.0 °F 72% 30.33 in 10.0 mi WNW 10.4 mph - N/A   Mostly Cloudy
10:10 AM 33.8 °F 26.4 °F 26.6 °F 75% 30.29 in 10.0 mi NW 9.2 mph - N/A   Scattered Clouds
10:51 AM 35.1 °F 30.1 °F 26.1 °F 70% 30.33 in 10.0 mi Variable 5.8 mph - N/A   Partly Cloudy
11:51 AM 36.0 °F 30.3 °F 25.0 °F 64% 30.31 in 10.0 mi NW 6.9 mph - N/A   Clear
12:51 PM 35.1 °F 31.0 °F 24.1 °F 64% 30.30 in 10.0 mi NW 4.6 mph - N/A   Clear
1:51 PM 34.0 °F 27.2 °F 25.0 °F 70% 30.31 in 10.0 mi East 8.1 mph - N/A   Partly Cloudy
2:51 PM 33.1 °F 30.0 °F 25.0 °F 72% 30.31 in 10.0 mi ENE 3.5 mph - N/A   Clear
3:51 PM 30.0 °F - 25.0 °F 82% 30.34 in 10.0 mi Calm Calm - N/A   Partly Cloudy
4:51 PM 28.4 °F - 24.8 °F 86% 30.32 in 10.0 mi Calm Calm - N/A   Partly Cloudy
5:51 PM 30.0 °F - 24.1 °F 79% 30.34 in 10.0 mi Calm Calm - N/A   Clear
6:51 PM 30.0 °F - 24.1 °F 79% 30.32 in 10.0 mi Calm Calm - N/A   Overcast
7:51 PM 28.9 °F - 24.1 °F 82% 30.31 in 10.0 mi Calm Calm - N/A   Overcast
8:51 PM 28.9 °F - 24.1 °F 82% 30.28 in 10.0 mi Calm Calm - N/A   Overcast
9:51 PM 28.9 °F - 24.1 °F 82% 30.23 in 10.0 mi Calm Calm - N/A   Overcast
10:51 PM 30.0 °F - 24.1 °F 79% 30.19 in 10.0 mi Calm Calm - N/A   Overcast
11:46 PM 28.4 °F 24.6 °F 24.8 °F 86% 30.11 in 6.0 mi East 3.5 mph - 0.00 in Snow Light Snow
11:51 PM 28.4 °F - 24.8 °F 86% 30.11 in 3.0 mi Calm Calm - N/A Snow Light Snow